Location: Kumla
(59.1265°N, 15.1401°E)
Time: 16:21:16
(UTC+01:00)

A-11 Canister half - Pass Details

Date: 08 December 2023
Orbit: 1526 x 1682 km, 47.3° (Epoch: 24 February)

Event Time Altitude Azimuth Distance (km) Brightness Sun altitude
Rises 18:03:16 0° 210° (SSW) 4,919 12.2 -20.9°
Reaches altitude 10° 18:07:02 10° 199° (SSW) 3,939 11.5 -21.4°
Maximum altitude 18:15:00 28° 147° (SSE) 2,792 10.1 -22.4°
Enters shadow 18:17:57 24° 121° (ESE) 2,974 10.0 -22.7°
Drops below altitude 10° 18:22:55 10° 94° (E) 3,920 - -23.4°
Sets 18:26:38 0° 84° (E) 4,892 - -23.9°
